Time,TemperatureF,DewpointF,PressureIn,WindDirection,WindDirectionDegrees,WindSpeedMPH,WindSpeedGustMPH,Humidity,HourlyPrecipIn,Conditions,Clouds,dailyrainin,SoftwareType,DateUTC
2013-12-03 00:01:00,35.0,29.0,-100.00,SSE,160,6.0,8.0,79,-99.99,,,-99.99,,2013-12-03 09:01:00,
2013-12-03 00:11:00,35.0,29.0,-100.00,SSE,160,6.0,8.0,79,-99.99,,,-99.99,,2013-12-03 09:11:00,
2013-12-03 00:21:00,35.0,29.0,-100.00,SSE,160,6.0,8.0,79,-99.99,,,-99.99,,2013-12-03 09:21:00,
2013-12-03 00:33:00,35.0,29.0,-100.00,SSE,160,6.0,8.0,79,-99.99,,,-99.99,,2013-12-03 09:33:00,
2013-12-03 00:40:00,35.0,29.0,-100.00,South,170,4.0,7.0,78,-99.99,,,-99.99,,2013-12-03 09:40:00,
2013-12-03 00:43:00,35.0,29.0,-100.00,SSE,160,6.0,8.0,79,-99.99,,,-99.99,,2013-12-03 09:43:00,
2013-12-03 00:53:00,35.0,29.0,-100.00,SSE,160,7.0,8.0,78,-99.99,,,-99.99,,2013-12-03 09:53:00,
2013-12-03 01:03:00,35.0,29.0,-100.00,SSE,160,7.0,8.0,78,-99.99,,,-99.99,,2013-12-03 10:03:00,
2013-12-03 01:13:00,35.0,29.0,-100.00,SSE,160,7.0,8.0,78,-99.99,,,-99.99,,2013-12-03 10:13:00,
2013-12-03 01:23:00,35.0,29.0,-100.00,South,170,4.0,7.0,78,-99.99,,,-99.99,,2013-12-03 10:23:00,
2013-12-03 01:33:00,35.0,29.0,-100.00,South,170,4.0,7.0,78,-99.99,,,-99.99,,2013-12-03 10:33:00,
2013-12-03 01:53:00,36.0,28.0,-100.00,South,180,4.0,9.0,73,-99.99,,,-99.99,,2013-12-03 10:53:00,
2013-12-03 02:03:00,36.0,28.0,-100.00,South,180,4.0,9.0,73,-99.99,,,-99.99,,2013-12-03 11:03:00,
2013-12-03 02:11:00,36.0,28.0,-100.00,South,180,4.0,9.0,73,-99.99,,,-99.99,,2013-12-03 11:11:00,
2013-12-03 02:22:00,36.0,29.0,-100.00,South,170,4.0,8.0,74,-99.99,,,-99.99,,2013-12-03 11:22:00,
2013-12-03 02:33:00,36.0,29.0,-100.00,South,170,4.0,8.0,74,-99.99,,,-99.99,,2013-12-03 11:33:00,
2013-12-03 02:42:00,36.0,29.0,-100.00,South,170,4.0,8.0,74,-99.99,,,-99.99,,2013-12-03 11:42:00,
2013-12-03 02:52:00,37.0,28.0,-100.00,SSW,195,6.0,9.0,70,-99.99,,,-99.99,,2013-12-03 11:52:00,
2013-12-03 03:02:00,37.0,28.0,-100.00,SSW,195,6.0,9.0,70,-99.99,,,-99.99,,2013-12-03 12:02:00,
2013-12-03 03:11:00,37.0,28.0,-100.00,SSW,195,6.0,9.0,70,-99.99,,,-99.99,,2013-12-03 12:11:00,
2013-12-03 03:21:00,37.0,28.0,-100.00,South,185,5.0,12.0,70,-99.99,,,-99.99,,2013-12-03 12:21:00,
2013-12-03 03:32:00,37.0,28.0,-100.00,South,185,5.0,12.0,70,-99.99,,,-99.99,,2013-12-03 12:32:00,
2013-12-03 03:42:00,37.0,28.0,-100.00,South,185,5.0,12.0,70,-99.99,,,-99.99,,2013-12-03 12:42:00,
2013-12-03 03:52:00,37.0,29.0,-100.00,SSE,165,5.0,8.0,71,-99.99,,,-99.99,,2013-12-03 12:52:00,
2013-12-03 04:02:00,37.0,29.0,-100.00,SSE,165,5.0,8.0,71,-99.99,,,-99.99,,2013-12-03 13:02:00,
2013-12-03 04:11:00,37.0,29.0,-100.00,SSE,165,5.0,8.0,71,-99.99,,,-99.99,,2013-12-03 13:11:00,
2013-12-03 04:21:00,37.0,28.0,-100.00,SSW,195,7.0,12.0,68,-99.99,,,-99.99,,2013-12-03 13:21:00,
2013-12-03 04:32:00,37.0,28.0,-100.00,SSW,195,7.0,12.0,68,-99.99,,,-99.99,,2013-12-03 13:32:00,
2013-12-03 04:42:00,37.0,28.0,-100.00,SSW,195,7.0,12.0,68,-99.99,,,-99.99,,2013-12-03 13:42:00,
2013-12-03 04:52:00,37.0,28.0,-100.00,SW,215,9.0,12.0,69,-99.99,,,-99.99,,2013-12-03 13:52:00,
2013-12-03 05:02:00,37.0,28.0,-100.00,SW,215,9.0,12.0,69,-99.99,,,-99.99,,2013-12-03 14:02:00,
2013-12-03 05:11:00,37.0,28.0,-100.00,SW,215,9.0,12.0,69,-99.99,,,-99.99,,2013-12-03 14:11:00,
2013-12-03 05:22:00,37.0,28.0,-100.00,SW,225,9.0,12.0,68,-99.99,,,-99.99,,2013-12-03 14:22:00,
2013-12-03 05:32:00,37.0,28.0,-100.00,SW,225,9.0,12.0,68,-99.99,,,-99.99,,2013-12-03 14:32:00,
2013-12-03 05:42:00,37.0,28.0,-100.00,SW,225,9.0,12.0,68,-99.99,,,-99.99,,2013-12-03 14:42:00,
2013-12-03 05:52:00,37.0,28.0,-100.00,SSW,200,5.0,14.0,68,-99.99,,,-99.99,,2013-12-03 14:52:00,
2013-12-03 06:02:00,37.0,28.0,-100.00,SSW,200,5.0,14.0,68,-99.99,,,-99.99,,2013-12-03 15:02:00,
2013-12-03 06:11:00,37.0,28.0,-100.00,SSW,200,5.0,14.0,68,-99.99,,,-99.99,,2013-12-03 15:11:00,
2013-12-03 06:21:00,38.0,29.0,-100.00,SW,235,9.0,16.0,69,-99.99,,,-99.99,,2013-12-03 15:21:00,
2013-12-03 06:33:00,38.0,29.0,-100.00,SW,235,9.0,16.0,69,-99.99,,,-99.99,,2013-12-03 15:33:00,
2013-12-03 06:43:00,38.0,29.0,-100.00,SW,235,9.0,16.0,69,-99.99,,,-99.99,,2013-12-03 15:43:00,
2013-12-03 06:53:00,38.0,29.0,-100.00,SSW,210,7.0,14.0,70,-99.99,,,-99.99,,2013-12-03 15:53:00,
2013-12-03 07:03:00,38.0,29.0,-100.00,SSW,210,7.0,14.0,70,-99.99,,,-99.99,,2013-12-03 16:03:00,
2013-12-03 07:13:00,38.0,29.0,-100.00,SSW,210,7.0,14.0,70,-99.99,,,-99.99,,2013-12-03 16:13:00,
2013-12-03 07:23:00,38.0,29.0,-100.00,SW,215,9.0,13.0,70,-99.99,,,-99.99,,2013-12-03 16:23:00,
2013-12-03 07:33:00,38.0,29.0,-100.00,SW,215,9.0,13.0,70,-99.99,,,-99.99,,2013-12-03 16:33:00,
2013-12-03 07:43:00,38.0,29.0,-100.00,SW,215,9.0,13.0,70,-99.99,,,-99.99,,2013-12-03 16:43:00,
2013-12-03 07:52:00,37.0,31.0,-100.00,SSW,210,9.0,13.0,78,-99.99,,,-99.99,,2013-12-03 16:52:00,
2013-12-03 08:02:00,37.0,31.0,-100.00,SSW,210,9.0,13.0,78,-99.99,,,-99.99,,2013-12-03 17:02:00,
2013-12-03 08:12:00,37.0,31.0,-100.00,SSW,210,9.0,13.0,78,-99.99,,,-99.99,,2013-12-03 17:12:00,
2013-12-03 08:22:00,37.0,31.0,-100.00,South,175,7.0,10.0,79,-99.99,,,-99.99,,2013-12-03 17:22:00,
2013-12-03 08:33:00,37.0,31.0,-100.00,South,175,7.0,10.0,79,-99.99,,,-99.99,,2013-12-03 17:33:00,
2013-12-03 08:42:00,37.0,31.0,-100.00,South,175,7.0,10.0,79,-99.99,,,-99.99,,2013-12-03 17:42:00,
2013-12-03 08:52:00,37.0,32.0,-100.00,SSW,210,4.0,10.0,82,-99.99,,,-99.99,,2013-12-03 17:52:00,
2013-12-03 09:02:00,37.0,32.0,-100.00,SSW,210,4.0,10.0,82,-99.99,,,-99.99,,2013-12-03 18:02:00,
2013-12-03 09:11:00,37.0,32.0,-100.00,SSW,210,4.0,10.0,82,-99.99,,,-99.99,,2013-12-03 18:11:00,
2013-12-03 09:22:00,37.0,32.0,-100.00,South,170,7.0,11.0,82,-99.99,,,-99.99,,2013-12-03 18:22:00,
2013-12-03 09:32:00,37.0,32.0,-100.00,South,170,7.0,11.0,82,-99.99,,,-99.99,,2013-12-03 18:32:00,
2013-12-03 09:42:00,37.0,32.0,-100.00,South,170,7.0,11.0,82,-99.99,,,-99.99,,2013-12-03 18:42:00,
2013-12-03 09:53:00,36.0,32.0,-100.00,South,170,4.0,6.0,86,-99.99,,,-99.99,,2013-12-03 18:53:00,
2013-12-03 10:02:00,36.0,32.0,-100.00,South,170,4.0,6.0,86,-99.99,,,-99.99,,2013-12-03 19:02:00,
2013-12-03 10:11:00,36.0,32.0,-100.00,South,170,4.0,6.0,86,-99.99,,,-99.99,,2013-12-03 19:11:00,
2013-12-03 10:21:00,37.0,33.0,-100.00,SSW,195,4.0,7.0,85,-99.99,,,-99.99,,2013-12-03 19:21:00,
2013-12-03 10:32:00,37.0,33.0,-100.00,SSW,195,4.0,7.0,85,-99.99,,,-99.99,,2013-12-03 19:32:00,
2013-12-03 10:42:00,37.0,33.0,-100.00,SSW,195,4.0,7.0,85,-99.99,,,-99.99,,2013-12-03 19:42:00,
2013-12-03 10:52:00,37.0,33.0,-100.00,SW,225,6.0,11.0,84,-99.99,,,-99.99,,2013-12-03 19:52:00,
2013-12-03 11:01:00,37.0,33.0,-100.00,SW,225,6.0,11.0,84,-99.99,,,-99.99,,2013-12-03 20:01:00,
2013-12-03 11:11:00,37.0,33.0,-100.00,SW,225,6.0,11.0,84,-99.99,,,-99.99,,2013-12-03 20:11:00,
2013-12-03 11:22:00,37.0,33.0,-100.00,SSE,165,4.0,12.0,84,-99.99,,,-99.99,,2013-12-03 20:22:00,
2013-12-03 11:32:00,37.0,33.0,-100.00,SSE,165,4.0,12.0,84,-99.99,,,-99.99,,2013-12-03 20:32:00,
2013-12-03 11:42:00,37.0,33.0,-100.00,SSE,165,4.0,12.0,84,-99.99,,,-99.99,,2013-12-03 20:42:00,
2013-12-03 11:52:00,37.0,33.0,-100.00,SSE,160,4.0,8.0,84,-99.99,,,-99.99,,2013-12-03 20:52:00,
2013-12-03 12:02:00,37.0,33.0,-100.00,SSE,160,4.0,8.0,84,-99.99,,,-99.99,,2013-12-03 21:02:00,
2013-12-03 12:11:00,37.0,33.0,-100.00,SSE,160,4.0,8.0,84,-99.99,,,-99.99,,2013-12-03 21:11:00,
2013-12-03 12:21:00,38.0,33.0,-100.00,SW,235,5.0,11.0,82,-99.99,,,-99.99,,2013-12-03 21:21:00,
2013-12-03 12:33:00,38.0,33.0,-100.00,SW,235,5.0,11.0,82,-99.99,,,-99.99,,2013-12-03 21:33:00,
2013-12-03 12:44:00,38.0,33.0,-100.00,SW,235,5.0,11.0,82,-99.99,,,-99.99,,2013-12-03 21:44:00,
2013-12-03 12:53:00,38.0,33.0,-100.00,SSW,195,6.0,11.0,80,-99.99,,,-99.99,,2013-12-03 21:53:00,
2013-12-03 13:03:00,38.0,33.0,-100.00,SSW,195,6.0,11.0,80,-99.99,,,-99.99,,2013-12-03 22:03:00,
2013-12-03 13:13:00,38.0,33.0,-100.00,SSW,195,6.0,11.0,80,-99.99,,,-99.99,,2013-12-03 22:13:00,
2013-12-03 13:23:00,38.0,33.0,-100.00,SSE,165,6.0,14.0,81,-99.99,,,-99.99,,2013-12-03 22:23:00,
2013-12-03 13:33:00,38.0,33.0,-100.00,SSE,165,6.0,14.0,81,-99.99,,,-99.99,,2013-12-03 22:33:00,
2013-12-03 13:43:00,38.0,33.0,-100.00,SSE,165,6.0,14.0,81,-99.99,,,-99.99,,2013-12-03 22:43:00,
2013-12-03 13:53:00,38.0,33.0,-100.00,SSW,195,4.0,11.0,82,-99.99,,,-99.99,,2013-12-03 22:53:00,
2013-12-03 14:02:00,38.0,33.0,-100.00,SSW,195,4.0,11.0,82,-99.99,,,-99.99,,2013-12-03 23:02:00,
2013-12-03 14:12:00,38.0,33.0,-100.00,SSW,195,4.0,11.0,82,-99.99,,,-99.99,,2013-12-03 23:12:00,
2013-12-03 14:22:00,38.0,33.0,-100.00,SSW,210,9.0,16.0,82,-99.99,,,-99.99,,2013-12-03 23:22:00,
2013-12-03 14:33:00,38.0,33.0,-100.00,SSW,210,9.0,16.0,82,-99.99,,,-99.99,,2013-12-03 23:33:00,
2013-12-03 14:42:00,38.0,33.0,-100.00,SSW,210,9.0,16.0,82,-99.99,,,-99.99,,2013-12-03 23:42:00,
2013-12-03 14:52:00,38.0,34.0,-100.00,SW,225,7.0,12.0,84,-99.99,,,-99.99,,2013-12-03 23:52:00,
2013-12-03 15:02:00,38.0,34.0,-100.00,SW,225,7.0,12.0,84,-99.99,,,-99.99,,2013-12-04 00:02:00,
2013-12-03 15:11:00,38.0,34.0,-100.00,SW,225,7.0,12.0,84,-99.99,,,-99.99,,2013-12-04 00:11:00,
2013-12-03 15:22:00,37.0,35.0,-100.00,SW,220,9.0,15.0,90,-99.99,,,-99.99,,2013-12-04 00:22:00,
2013-12-03 15:32:00,37.0,35.0,-100.00,SW,220,9.0,15.0,90,-99.99,,,-99.99,,2013-12-04 00:32:00,
2013-12-03 15:42:00,37.0,35.0,-100.00,SW,220,9.0,15.0,90,-99.99,,,-99.99,,2013-12-04 00:42:00,
2013-12-03 15:52:00,37.0,35.0,-100.00,South,180,4.0,10.0,89,-99.99,,,-99.99,,2013-12-04 00:52:00,
2013-12-03 16:02:00,37.0,35.0,-100.00,South,180,4.0,10.0,89,-99.99,,,-99.99,,2013-12-04 01:02:00,
2013-12-03 16:11:00,37.0,35.0,-100.00,South,180,4.0,10.0,89,-99.99,,,-99.99,,2013-12-04 01:11:00,
2013-12-03 16:21:00,37.0,35.0,-100.00,South,170,4.0,7.0,90,-99.99,,,-99.99,,2013-12-04 01:21:00,
2013-12-03 16:32:00,37.0,35.0,-100.00,South,170,4.0,7.0,90,-99.99,,,-99.99,,2013-12-04 01:32:00,
2013-12-03 16:42:00,37.0,35.0,-100.00,South,170,4.0,7.0,90,-99.99,,,-99.99,,2013-12-04 01:42:00,
2013-12-03 16:52:00,38.0,35.0,-100.00,South,175,3.0,12.0,88,-99.99,,,-99.99,,2013-12-04 01:52:00,
2013-12-03 17:02:00,38.0,35.0,-100.00,South,175,3.0,12.0,88,-99.99,,,-99.99,,2013-12-04 02:02:00,
2013-12-03 17:11:00,38.0,35.0,-100.00,South,175,3.0,12.0,88,-99.99,,,-99.99,,2013-12-04 02:11:00,
2013-12-03 17:21:00,38.0,34.0,-100.00,SSE,160,7.0,13.0,86,-99.99,,,-99.99,,2013-12-04 02:21:00,
2013-12-03 17:32:00,38.0,34.0,-100.00,SSE,160,7.0,13.0,86,-99.99,,,-99.99,,2013-12-04 02:32:00,
2013-12-03 17:42:00,38.0,34.0,-100.00,SSE,160,7.0,13.0,86,-99.99,,,-99.99,,2013-12-04 02:42:00,
2013-12-03 17:52:00,38.0,35.0,-100.00,SW,215,7.0,13.0,89,-99.99,,,-99.99,,2013-12-04 02:52:00,
2013-12-03 18:02:00,38.0,35.0,-100.00,SW,215,7.0,13.0,89,-99.99,,,-99.99,,2013-12-04 03:02:00,
2013-12-03 18:11:00,38.0,35.0,-100.00,SW,215,7.0,13.0,89,-99.99,,,-99.99,,2013-12-04 03:11:00,
2013-12-03 18:21:00,38.0,35.0,-100.00,SSW,200,4.0,8.0,90,-99.99,,,-99.99,,2013-12-04 03:21:00,
2013-12-03 18:33:00,38.0,35.0,-100.00,SSW,200,4.0,8.0,90,-99.99,,,-99.99,,2013-12-04 03:33:00,
2013-12-03 18:43:00,38.0,35.0,-100.00,SSW,200,4.0,8.0,90,-99.99,,,-99.99,,2013-12-04 03:43:00,
2013-12-03 18:54:00,38.0,35.0,-100.00,SSW,205,7.0,11.0,88,-99.99,,,-99.99,,2013-12-04 03:54:00,
2013-12-03 19:03:00,38.0,35.0,-100.00,SSW,205,7.0,11.0,88,-99.99,,,-99.99,,2013-12-04 04:03:00,
2013-12-03 19:13:00,38.0,35.0,-100.00,SSW,205,7.0,11.0,88,-99.99,,,-99.99,,2013-12-04 04:13:00,
2013-12-03 19:23:00,38.0,35.0,-100.00,South,185,9.0,12.0,89,-99.99,,,-99.99,,2013-12-04 04:23:00,
2013-12-03 19:33:00,38.0,35.0,-100.00,South,185,9.0,12.0,89,-99.99,,,-99.99,,2013-12-04 04:33:00,
2013-12-03 19:42:00,38.0,35.0,-100.00,South,185,9.0,12.0,89,-99.99,,,-99.99,,2013-12-04 04:42:00,
2013-12-03 19:52:00,38.0,35.0,-100.00,South,180,6.0,11.0,89,-99.99,,,-99.99,,2013-12-04 04:52:00,
2013-12-03 20:02:00,38.0,35.0,-100.00,South,180,6.0,11.0,89,-99.99,,,-99.99,,2013-12-04 05:02:00,
2013-12-03 20:12:00,38.0,35.0,-100.00,South,180,6.0,11.0,89,-99.99,,,-99.99,,2013-12-04 05:12:00,
2013-12-03 20:22:00,37.0,35.0,-100.00,SW,230,13.0,17.0,91,-99.99,,,-99.99,,2013-12-04 05:22:00,
2013-12-03 20:33:00,37.0,35.0,-100.00,SW,230,13.0,17.0,91,-99.99,,,-99.99,,2013-12-04 05:33:00,
2013-12-03 20:42:00,37.0,35.0,-100.00,SW,230,13.0,17.0,91,-99.99,,,-99.99,,2013-12-04 05:42:00,
2013-12-03 20:53:00,37.0,36.0,-100.00,South,185,6.0,10.0,95,-99.99,,,-99.99,,2013-12-04 05:53:00,
2013-12-03 21:02:00,37.0,36.0,-100.00,South,185,6.0,10.0,95,-99.99,,,-99.99,,2013-12-04 06:02:00,
2013-12-03 21:12:00,37.0,36.0,-100.00,South,185,6.0,10.0,95,-99.99,,,-99.99,,2013-12-04 06:12:00,
2013-12-03 21:22:00,38.0,36.0,-100.00,South,180,7.0,12.0,93,-99.99,,,-99.99,,2013-12-04 06:22:00,
2013-12-03 21:32:00,38.0,36.0,-100.00,South,180,7.0,12.0,93,-99.99,,,-99.99,,2013-12-04 06:32:00,
2013-12-03 21:42:00,38.0,36.0,-100.00,South,180,7.0,12.0,93,-99.99,,,-99.99,,2013-12-04 06:42:00,
2013-12-03 21:52:00,38.0,36.0,-100.00,SW,215,7.0,14.0,93,-99.99,,,-99.99,,2013-12-04 06:52:00,
2013-12-03 22:02:00,38.0,36.0,-100.00,SW,215,7.0,14.0,93,-99.99,,,-99.99,,2013-12-04 07:02:00,
2013-12-03 22:12:00,38.0,36.0,-100.00,SW,215,7.0,14.0,93,-99.99,,,-99.99,,2013-12-04 07:12:00,
2013-12-03 22:21:00,38.0,36.0,-100.00,South,180,7.0,11.0,92,-99.99,,,-99.99,,2013-12-04 07:21:00,
2013-12-03 22:32:00,38.0,36.0,-100.00,South,180,7.0,11.0,92,-99.99,,,-99.99,,2013-12-04 07:32:00,
2013-12-03 22:42:00,38.0,36.0,-100.00,South,180,7.0,11.0,92,-99.99,,,-99.99,,2013-12-04 07:42:00,
2013-12-03 22:52:00,38.0,36.0,-100.00,SSE,165,7.0,12.0,92,-99.99,,,-99.99,,2013-12-04 07:52:00,
2013-12-03 23:01:00,38.0,36.0,-100.00,SSE,165,7.0,12.0,92,-99.99,,,-99.99,,2013-12-04 08:01:00,
2013-12-03 23:11:00,38.0,36.0,-100.00,SSE,165,7.0,12.0,92,-99.99,,,-99.99,,2013-12-04 08:11:00,
2013-12-03 23:21:00,38.0,36.0,-100.00,South,190,6.0,12.0,92,-99.99,,,-99.99,,2013-12-04 08:21:00,
2013-12-03 23:32:00,38.0,36.0,-100.00,South,190,6.0,12.0,92,-99.99,,,-99.99,,2013-12-04 08:32:00,
2013-12-03 23:42:00,38.0,36.0,-100.00,South,190,6.0,12.0,92,-99.99,,,-99.99,,2013-12-04 08:42:00,
2013-12-03 23:52:00,38.0,36.0,-100.00,SSW,200,4.0,10.0,92,-99.99,,,-99.99,,2013-12-04 08:52:00,